Regional Weather Roundup
Issued by NWS Sterling, VA

Home | Current Version | Previous Version | Text Only | Print | Product List | Glossary On
Versions: 1 2 3 4 5 6 7 8 9 10 11 12 13 14 15 16 17 18 19 20 21 22 23 24 25 26 27 28 29 30 31 32 33 34 35 36 37 38 39 40 41 42 43 44 45 46 47 48 49 50
000
ASUS41 KLWX 020710
RWRLWX

REGIONAL WEATHER ROUNDUP
NATIONAL WEATHER SERVICE BALTIMORE MD/WASHINGTON DC
300 AM EDT SAT AUG 02 2014

Note: "FAIR" indicates few or no clouds below 12,000 feet
with no significant weather and/or obstructions to visibility.
 TC=TEMPERATURE CELSIUS

 * =Non NWS site. Station does not report precipitation (e.g. rain,
    snow, etc.), thunder, or fog.

DCZ001-MDZ009-015-VAZ040>042-051-053>054-020800-
WASHINGTON METRO
  /KDAA//-FT BELVOIR

CITY           SKY/WX    TMP DP  RH WIND       PRES   REMARKS
WASHINGTON NAT LGT RAIN  68  61  78 N7        30.14F
DULLES         CLOUDY    65  60  84 N5        30.14F
ANDREWS AFB    RAIN      65  64  97 N6        30.13F
QUANTICO       LGT RAIN  65  62  90 N6        30.13F
COLLEGE PARK*  CLOUDY    64  64 100 CALM      30.13F
LEESBURG*      CLOUDY    64  63  94 CALM      30.16F
MANASSAS*      CLOUDY    64  64 100 CALM      30.14F
GAITHERSBURG*  CLOUDY    63  61  94 CALM      30.18F

$$

MDZ006>007-011-014-020800-
BALTIMORE METRO

CITY           SKY/WX    TMP DP  RH WIND       PRES   REMARKS
BWI AIRPORT    LGT RAIN  65  64  97 NW6       30.14F FOG
MD SCIENCE CTR   N/A     67  63  87 MISG      30.15F
MARTIN STATE   LGT RAIN  66  64  94 NW5       30.15F
ANNAPOLIS      LGT RAIN  67  64  90 N3        30.13S FOG
FORT MEADE*    CLOUDY    63  61  94 NW5       30.16S

$$

MDZ012-015-019>023-020800-
MARYLAND EASTERN SHORE

CITY           SKY/WX    TMP DP  RH WIND       PRES   REMARKS
OCEAN CITY     RAIN      65  64  97 N9        30.10R FOG
SALISBURY      RAIN      67  64  90 N7        30.11S FOG
BAY BRIDGE AP* LGT RAIN  66  64  94 CALM      30.13F
CAMBRIDGE*     CLOUDY    63  61  94 CALM      30.12F
EASTON*        LGT RAIN  65  65 100 CALM      30.17S

$$

MDZ017>025-020800-
SOUTHERN MARYLAND

CITY           SKY/WX    TMP DP  RH WIND       PRES   REMARKS
PATUXENT RIVER RAIN      66  64  93 NE8       30.09F FOG
ST INIGOES     RAIN      67  65  93 NE6       30.09F FOG
LEONARDTOWN*   CLOUDY    64  63  94 NE3       30.11F

$$

MDZ003>005-020800-
NORTH CENTRAL MARYLAND

CITY           SKY/WX    TMP DP  RH WIND       PRES   REMARKS
FREDERICK*     CLOUDY    66  64  94 CALM      30.18F
HAGERSTOWN APT CLOUDY    68  60  75 S8        30.16S
WESTMINSTER*   CLOUDY    66  64  94 S3        30.17S

$$

MDZ501>502-020800-
WESTERN MARYLAND

CITY           SKY/WX    TMP DP  RH WIND       PRES   REMARKS
OAKLAND*       MOCLDY    57  57 100 SE9       30.19F
CUMBERLAND*    CLEAR     64  61  88 CALM      30.18S

$$

VAZ025>031-020800-
SHENANDOAH VALLEY

CITY           SKY/WX    TMP DP  RH WIND       PRES   REMARKS
WINCHESTER*    PTCLDY    63  59  88 CALM      30.16F
STAUNTON*      CLOUDY    64  59  84 CALM      30.18F

$$

WVZ021-048>050-054>055-020800-
EASTERN WEST VIRGINIA PANHANDLE

CITY           SKY/WX    TMP DP  RH WIND       PRES   REMARKS
MARTINSBURG    MOCLDY    66  57  72 S3        30.16F
PETERSBURG*    CLOUDY    63  59  87 CALM      30.16F FOG

$$

VAZ036>039-050-020800-
CENTRAL FOOTHILLS

CITY           SKY/WX    TMP DP  RH WIND       PRES   REMARKS
CHARLOTTESVILL CLOUDY    64  61  90 CALM      30.14F
ORANGE*        LGT RAIN  63  61  94 NW3       30.15F

$$

VAZ055>057-020800-
NORTH AND CENTRAL PIEDMONT

CITY           SKY/WX    TMP DP  RH WIND       PRES   REMARKS
FREDERICKSBRG* CLOUDY    65  65 100 CALM      30.12F
STAFFORD*      CLOUDY    63  63 100 N5        30.17F

$$

NCZ024-NYZ072-PAZ021-071-VAZ022-071-020800-
OTHER REGIONAL OBSERVATIONS

CITY           SKY/WX    TMP DP  RH WIND       PRES   REMARKS
NEW YORK CITY  CLOUDY    72  59  63 CALM      30.19F
PHILADELPHIA   LGT RAIN  71  66  84 SW3       30.16F
PITTSBURGH     CLOUDY    69  62  78 CALM      30.11S
ROANOKE        CLOUDY    62  61  96 W3        30.17S
RICHMOND       CLOUDY    66  64  93 N8        30.10S
RALEIGH        DRIZZLE   65  63  93 VRB3      30.10F FOG

$$

ANZ530>537-020800-
MARINE OBSERVATIONS

STATION/POSITION TIME  TEMP    WIND        PRES
                       AIR SEA DIR/SP/G
                 (UTC) (F)     (DEG/KT/KT) (MB)
THOMAS PT LIGHT  0700   69 77   70/ 13/ 15 1020.6F
BALT KEY BRIDGE  0700           10/  6/  8 1020.3F
COVE POINT       0700   65     100/ 10/ 13 1019.6F
LEWISETTA        0700   68 76   50/  9/ 14 1018.5F
SOLOMONS ISLAND  0700      79                N/A
PINEY POINT      0700           80/  7/  8   N/A

$$




USA.gov is the U.S. government's official web portal to all federal, state and local government web resources and services.